Regional Weather Roundup
Issued by NWS

Home | Current Version | Previous Version | Text Only | Print | Product List | Glossary Off
Versions: 1 2 3 4 5 6 7 8 9 10 11 12 13 14 15 16 17 18 19 20 21 22 23 24 25 26 27 28 29 30 31 32 33 34 35 36 37 38 39 40 41 42 43 44 45 46 47 48 49 50

000
ASUS45 KBOU 301310
RWRCO

WEATHER ROUNDUP FOR COLORADO
NATIONAL WEATHER SERVICE DENVER/BOULDER CO
700 AM MDT TUE JUN 30 2015

NOTE: "FAIR" INDICATES FEW OR NO CLOUDS BELOW 12000 FEET WITH NO
SIGNIFICANT WEATHER AND/OR OBSTRUCTIONS TO VISIBILITY.

COZ001>005-013-030-031-301400-
...NORTHWEST COLORADO...

CITY           SKY/WX    TMP DP  RH WIND       PRES   REMARKS
CRAIG          MOSUNNY   59  48  67 CALM      30.26S
HAYDEN         MOSUNNY   61  43  51 E10       30.28S
MEEKER         MOSUNNY   57  46  66 CALM      30.28R
MOUNT WERNER   NOT AVBL
STEAMBOAT SPGS MOSUNNY   53  45  74 CALM      30.32S
WALDEN         MOSUNNY   43  37  81 SE3       30.42S
$$

COZ006>008-011-301400-
...WEST CENTRAL VALLEYS...

CITY           SKY/WX    TMP DP  RH WIND       PRES   REMARKS
GRAND JUNCTION SUNNY     76  44  32 E12       30.13R
MONTROSE       SUNNY     66  46  48 SE7       30.24R
EAGLE          MOSUNNY   55  45  67 CALM      30.36R
RIFLE          MOSUNNY   62  44  51 SE5       30.23R
DELTA          SUNNY     69  45  42 NE3       30.19R
NUCLA          SUNNY     64  45  48 E3        30.27R
$$

COZ017>023-064>068-301400-
...SOUTHWEST COLORADO...

CITY           SKY/WX    TMP DP  RH WIND       PRES   REMARKS
DURANGO        SUNNY     57  50  77 N5        30.32S
CORTEZ         SUNNY     63  49  60 E7        30.24R
PAGOSA SPRINGS SUNNY     56  46  66 CALM      30.41R
TELLURIDE      SUNNY     60  41  49 SE6       30.51R
WOLF CREEK PAS NOT AVBL
$$

COZ009-010-012-014-032>034-037-058>063-301400-
...CENTRAL COLORADO...

CITY           SKY/WX    TMP DP  RH WIND       PRES   REMARKS
ASPEN          MOSUNNY   54  43  66 S6        30.40R
BUENA VISTA    SUNNY     55  46  70 N3        30.43R
COPPER MTN     NOT AVBL
BERTHOUD PASS  FAIR      45  36  70 N16       30.75S
COTTONWOOD PAS NOT AVBL
GUNNISON       SUNNY     52  43  71 NW3       30.46R
KREMMLING      MOSUNNY   50  43  76 CALM      30.42R
LEADVILLE      SUNNY     49  42  77 NE3       30.55S
SALIDA         SUNNY     56  49  77 CALM      30.47S
SUNLIGHT       MOSUNNY   61  39  44 CALM      30.64S
WILKERSON PASS SUNNY     50  41  71 W5        30.67S
$$

COZ069>075-301400-
...SAN LUIS VALLEY/SANGRE DE CRISTO MOUNTAINS...

CITY           SKY/WX    TMP DP  RH WIND       PRES   REMARKS
ALAMOSA        SUNNY     55  45  68 CALM      30.39R
LA VETA PASS   SUNNY     52  43  71 MISG      30.56R
SAGUACHE       SUNNY     54  46  76 NW12      30.41F
$$

COZ035-036-038>040-301400-
...NORTHERN COLORADO FRONT RANGE...

CITY           SKY/WX    TMP DP  RH WIND       PRES   REMARKS
DENVER INTL AP PTSUNNY   67  52  58 SW10      30.18R
DMNS CITY PARK   N/A     66  50  56 SE7       30.18S
AURORA         PTSUNNY   65  53  66 CALM      30.21R
FRONT RANGE AP MOSUNNY   68  55  64 S9        30.20R
ERIE MUNI ARPT SUNNY     61  54  77 CALM      30.17S
BOULDER MUN AP SUNNY     61  52  72 CALM      30.18R
CENTENNIAL     MOSUNNY   66  53  63 SE3       30.22R
BROOMFIELD     MOSUNNY   64  50  59 CALM      30.21R
FORT COLLINS   MOSUNNY   64  55  72 CALM      30.18R
LONGMONT       MOSUNNY   61  53  73 CALM      30.18S
$$

COZ041-046-047-076>085-087-088-301400-
...PIKES PEAK/PALMER DIVIDE AND SOUTHERN FOOTHILLS...

CITY           SKY/WX    TMP DP  RH WIND       PRES   REMARKS
COLO. SPRINGS  PTSUNNY   63  54  72 N7        30.25F
A. F. ACADEMY  MOSUNNY   59  50  70 N7        30.27F
ELLICOTT       MOSUNNY  N/A N/A N/A CALM      30.24F
FALCON         MOSUNNY   64  52  65 CALM      30.31S
FORT CARSON    SUNNY     62  52  70 NW9       30.22F
LIMON          MOSUNNY   61  57  87 N3        30.20S
MONUMENT HILL  MOSUNNY   61  50  67 SW7       30.31S
TRINIDAD       SUNNY     64  50  60 SW13      30.25R
$$

COZ042>045-048>051-090-091-301400-
...NORTHEAST COLORADO...

CITY           SKY/WX    TMP DP  RH WIND       PRES   REMARKS
GREELEY ARPT   MOSUNNY   63  55  77 CALM      30.16R
AKRON          SUNNY     68  54  60 SW13      30.13S
BURLINGTON     SUNNY     66  52  60 W10       30.12R
WRAY           MOSUNNY   65  58  77 W5        30.08S
STERLING       SUNNY     63  59  88 SW6       30.09R
HOLYOKE        MOSUNNY   64  59  82 CALM      30.07S
FORT MORGAN    SUNNY     61  57  89 W8        30.14R
$$

COZ086-089-092>099-301400-
...SOUTHEAST COLORADO...

CITY           SKY/WX    TMP DP  RH WIND       PRES   REMARKS
PUEBLO         SUNNY     65  55  70 W3        30.16S
LA JUNTA       SUNNY     65  55  70 W10       30.14R
LAMAR          SUNNY     63  57  81 CALM      30.11R
SPRINGFIELD      N/A     69  53  56 SW9       30.17R
$$



USA.gov is the U.S. government's official web portal to all federal, state and local government web resources and services.